This is the latest recevied weather packets stored in our database for station/object KD8OZS. If no packets are shown the sender has not sent any weather packets the latest 10 day(s).
| Time | Temp. | Humidity | Pressure | Rain* | Wind** | Luminosity | Snow |
|---|---|---|---|---|---|---|---|
| 1787845653 | 25.56° C | 79% | 1007.8 hPa | 0 mm | - | 256 W/m² | - |
| 1787845352 | 25.56° C | 78% | 1008 hPa | 0 mm | - | 229 W/m² | - |
| 1787845049 | 25° C | 77% | 1008 hPa | 0 mm | - | 210 W/m² | - |
| 1787844744 | 25° C | 81% | 1008.1 hPa | 0 mm | - | 235 W/m² | - |
| 1787844443 | 25° C | 80% | 1008.1 hPa | 0 mm | - | 179 W/m² | - |
| 1787844138 | 25° C | 78% | 1008.2 hPa | 0 mm | - | 133 W/m² | - |
| 1787843838 | 25° C | 82% | 1008.1 hPa | 0 mm | - | 332 W/m² | - |
| 1787843533 | 25° C | 82% | 1008.1 hPa | 0 mm | - | 139 W/m² | - |
| 1787843230 | 25° C | 81% | 1007.8 hPa | 0 mm | - | 161 W/m² | - |
| 1787842930 | 24.44° C | 84% | 1008.1 hPa | 0 mm | - | 186 W/m² | - |
| 1787842629 | 24.44° C | 84% | 1007.8 hPa | 0 mm | - | 211 W/m² | - |
| 1787842324 | 23.89° C | 84% | 1007.8 hPa | 0 mm | - | 230 W/m² | - |
| 1787842019 | 24.44° C | 82% | 1007.7 hPa | 0 mm | - | 139 W/m² | - |
| 1787841715 | 24.44° C | 82% | 1007.7 hPa | 0 mm | - | 147 W/m² | - |
| 1787841415 | 23.89° C | 83% | 1007.7 hPa | 0 mm | - | 337 W/m² | - |
| 1787841109 | 23.89° C | 84% | 1007.5 hPa | 0 mm | - | 517 W/m² | - |
| 1787840804 | 23.89° C | 82% | 1007.7 hPa | 0 mm | - | 281 W/m² | - |
| 1787840499 | 23.89° C | 84% | 1007.5 hPa | 0 mm | - | 351 W/m² | - |
| 1787840195 | 23.89° C | 83% | 1007.4 hPa | 0 mm | - | 550 W/m² | - |
| 1787839894 | 23.89° C | 83% | 1007.3 hPa | 0 mm | - | 531 W/m² | - |
| 1787839590 | 23.33° C | 84% | 1007.6 hPa | 0 mm | - | 551 W/m² | - |
| 1787839290 | 23.33° C | 84% | 1007.3 hPa | 0 mm | - | 551 W/m² | - |
| 1787838984 | 22.78° C | 87% | 1007.2 hPa | 0 mm | - | 519 W/m² | - |
| 1787838683 | 22.22° C | 87% | 1007.3 hPa | 0 mm | - | 491 W/m² | - |
| 1787838382 | 22.22° C | 86% | 1007.3 hPa | 0 mm | - | 501 W/m² | - |
* Rain latest hour (hover to see other rain measurements)
** Current wind speed in m/s (hover to see current wind gust speed)